OBJECT AA, 68440

Orbit data source: Space-Track

You're viewing an uncataloged RSO

Recently launched and/or uncataloged RSOs may have evolving metadata. Metadata may include the following, but is not limited to: Owner, Manufacturer, Bus, Motor, and Mission.

OBJECT AA, 68440 is a satellite in SSO that was launched on Mon, 30 Mar 2026 UTC via an FALCON 9 launch vehicle from the Air Force Western Test Range (AFWTR). Unknown objects in Earth's orbit typically refer to objects detected orbiting the Earth but have not yet been identified or cataloged. These objects could be anything from previously untracked satellites, spent rocket stages, debris from satellite collisions, or even natural meteoroids temporarily captured by Earth's gravity.

Loading next visibility...
Identifier
68440, 2026-067AA
Orbit
SSO
Country
Flag of TBDTBD
Related business
None
Manufacturer
Unknown
Mission
Operational Amateur Imaging
Bus & Motor
Unknown
Mass
Unknown
Launch date (UTC)
2026-03-30 (6 months ago)
Launch vehicle
FALCON 9
Launch site
Air Force Western Test Range (AFWTR)
Object type
Unknown
Shape & HBR
Box, 0.2 m
Radar Cross Section
0.035 m², Medium (>0.1 m² and < 1m²)

Expand to show TLE details & history
Last TLE update: 10 hours ago

TLE from 10 hours ago
0 OBJECT AA
1 68440U 26067AA  26263.61979510  .00016846  00000-0  70204-3 0  9991
2 68440  97.4593 221.3208 0004969  88.7364 271.4442 15.23769344 26469
Epoch: 2026-09-20T14:52Z
TLE epoch observation values (Epoch: 2026-09-20T14:52:30.296Z)
Latitude
-0.00006°
Longitude
-1.31679°
Altitude
497.493 km
Speed
7.616 km/s
True Right ascension
14h 45m 16s
True Declination
0° 00' 00"
Sunlit
Object was in daylight at epoch
Visualization orbit readout
Latitude
Unknown
Longitude
Unknown
Altitude
Unknown
Speed
Unknown
Apparent Right ascension
Unknown
Apparent Declination
Unknown
Sunlit
N/A
Visualization observer readout
Local Sidereal Time
18:03:00
Azimuth
Unknown
Elevation
Unknown
Doppler factor
Unknown
Orbital elements
Apogee altitude
494.86 km
Perigee altitude
488.033 km
Semi-major axis
6,869.583 km
Eccentricity
0.0005
Inclination
97.4593°
RAAN
221.3208°
Arg. of periapsis
88.7364°
True anomaly
271.38728°
Mean anomaly
271.4442°
Eccentric anomaly
271.41574°
Mean motion
3.81195 °/min
Orbital period
94.44 mins
BSTAR
0.00070204
Loading maneuver chart data...
Computing Atmospheric mass density...
Loading historical data...
Loading historical data...
Loading historical data...
Loading historical data...
Loading historical data...
Loading historical data...
Loading historical data...

Documentation

Showing up to 5 results
|